This is the latest recevied weather packets stored in our database for station/object SP6PWT-13. If no packets are shown the sender has not sent any weather packets the latest 10 day(s).
| Time | Temp. | Humidity | Pressure | Rain* | Wind** | Luminosity | Snow |
|---|---|---|---|---|---|---|---|
| 1777792031 | 19.44° C | 45% | 1000.9 hPa | 0 mm | - | 378 W/m² | - |
| 1777791731 | 18.89° C | 45% | 1001 hPa | 0 mm | - | 387 W/m² | - |
| 1777791420 | 18.89° C | 46% | 1001 hPa | 0 mm | - | 376 W/m² | - |
| 1777791119 | 17.78° C | 47% | 1001 hPa | 0 mm | - | 363 W/m² | - |
| 1777790809 | 17.22° C | 48% | 1000.9 hPa | 0 mm | - | 268 W/m² | - |
| 1777790509 | 17.22° C | 47% | 1000.8 hPa | 0 mm | - | 171 W/m² | - |
| 1777790208 | 17.22° C | 47% | 1001.1 hPa | 0 mm | - | 323 W/m² | - |
| 1777789907 | 16.67° C | 49% | 1001 hPa | 0 mm | - | 209 W/m² | - |
| 1777789606 | 16.67° C | 50% | 1000.8 hPa | 0 mm | - | 48 W/m² | - |
| 1777789305 | 16.67° C | 49% | 1000.8 hPa | 0 mm | - | 210 W/m² | - |
| 1777788994 | 16.67° C | 50% | 1000.9 hPa | 0 mm | - | 211 W/m² | - |
| 1777788694 | 16.11° C | 51% | 1000.9 hPa | 0 mm | - | 268 W/m² | - |
| 1777788394 | 15.56° C | 53% | 1000.9 hPa | 0 mm | - | 253 W/m² | - |
| 1777788083 | 15.56° C | 53% | 1000.9 hPa | 0 mm | - | 236 W/m² | - |
| 1777787782 | 15.56° C | 54% | 1000.9 hPa | 0 mm | - | 59 W/m² | - |
| 1777787481 | 15° C | 54% | 1000.8 hPa | 0 mm | - | 214 W/m² | - |
| 1777787181 | 14.44° C | 57% | 1000.9 hPa | 0 mm | - | 202 W/m² | - |
| 1777786871 | 13.89° C | 58% | 1000.9 hPa | 0 mm | - | 173 W/m² | - |
| 1777786570 | 13.89° C | 58% | 1001 hPa | 0 mm | - | 46 W/m² | - |
| 1777786270 | 13.33° C | 59% | 1000.8 hPa | 0 mm | - | 43 W/m² | - |
| 1777785969 | 13.33° C | 59% | 1001 hPa | 0 mm | - | 42 W/m² | - |
| 1777785658 | 12.78° C | 60% | 1000.8 hPa | 0 mm | - | 43 W/m² | - |
| 1777785357 | 12.78° C | 60% | 1000.9 hPa | 0 mm | - | 41 W/m² | - |
| 1777785057 | 12.22° C | 61% | 1000.9 hPa | 0 mm | - | 40 W/m² | - |
| 1777784746 | 12.22° C | 62% | 1000.9 hPa | 0 mm | - | 38 W/m² | - |
* Rain latest hour (hover to see other rain measurements)
** Current wind speed in m/s (hover to see current wind gust speed)